FREGAT R/B, 39192

Orbit data source: Space-Track

FREGAT R/B, 39192 is space debris originally from a launch on Tue, 25 Jun 2013 UTC launched from the French Guiana (FRGUI). Debris objects in space refer to the collection of defunct objects orbiting the Earth. Examples of debris include non-operational satellites, rocket bodies, and fragments generated from explosions, collisions, or faulty payload assembly.

Loading next visibility...
Identifier
39192, 2013-031E
Orbit
Active
Country
Flag of CISCIS
Related business
Manufacturer
Lavochkin
Mission
Spacecraft
Bus & Motor
FREGAT, Unknown motor
Mass
1,050 kg wet, 1,050 kg dry
Launch date (UTC)
2013-06-25 (12 years ago)
Launch vehicle
Unknown
Launch site
French Guiana (FRGUI)
Object type
Payload
Rocket body
Debris
Shape & HBR
Irr, 1.6 m
Radar Cross Section
11.055 m², Large (>1 m²)

Expand to show TLE details & history
Last TLE update: 20 hours ago

TLE from 20 hours ago
0 FREGAT R/B
1 39192U 13031E   25260.05751726 -.00000027  00000-0  00000-0 0  9990
2 39192   0.0917 236.3365 0008471 180.2041 303.5399  5.20983834232794
Epoch: 2025-09-17T01:22Z
TLE epoch observation values (Epoch: 2025-09-17T01:22:49.491Z)
Latitude
0.07473°
Longitude
-16.94513°
Altitude
7,669.415 km
Speed
5.329 km/s
True Right ascension
00h 00m 00s
True Declination
0° 04' 28"
Sunlit
Object was in full shadow at epoch
Visualization orbit readout
Latitude
Unknown
Longitude
Unknown
Altitude
Unknown
Speed
Unknown
Apparent Right ascension
Unknown
Apparent Declination
Unknown
Sunlit
N/A
Visualization observer readout
Local Sidereal Time
14:08:52
Azimuth
Unknown
Elevation
Unknown
Doppler factor
Unknown
Orbital elements
Apogee altitude
7,692.61 km
Perigee altitude
7,668.792 km
Semi-major axis
14,058.838 km
Eccentricity
0.00085
Inclination
0.0917°
RAAN
236.3365°
Arg. of periapsis
180.2041°
True anomaly
303.45894°
Mean anomaly
303.5399°
Eccentric anomaly
303.49943°
Mean motion
1.30202 °/min
Orbital period
276.49 mins
BSTAR
0
Loading maneuver chart data...
Computing Atmospheric mass density...
Loading historical data...
Loading historical data...
Loading historical data...
Loading historical data...
Loading historical data...
Loading historical data...
Loading historical data...
Other satellites on launch #31 in the year 2013 (2013-06-25 UTC)

Documentation

Showing up to 5 results
|